Dauntless Aviation
Greetings, Guest! To participate, [sign up for a free account] or [log in]
Airports North America United States Colorado
98CO

NCMC HELIPORT

GREELEY, CO, USA

Airport Info

Location

Latitude / Longitude: 40°24'53"N / 104°42'28"W
  40°24.9'N / 104°42.4667'W
  40.4150 / -104.7078
Elevation: 4882 ft. (estimated)
Variation: 12E (1985)
From city: 00 miles N of GREELEY, CO

Operations

Facility use: Private
Sectional chart: DENVER
Control tower: no
Boundary ARTCC: DENVER
FSS: DENVER [1-800-WX-BRIEF]
Segmented circle: no

Communications

Nearby radio navigation aids

VOR radial/distance VOR name Freq Var
GLL 233oT/8.9 GILL VORTAC 114.20 13E
DVV 353oT/31.5 MILE HIGH VORTAC 114.70 11E
BJC 33oT/36.1 JEFFCO VOR/DME 115.40 11E
DEN 357oT/36.2 DENVER VOR/DME 117.90 11E
 
NDB name Hdg/Dist Freq Var ID

Services

Runway Information

Helipad H1

Dimensions: 40 x 40 ft.
Surface: PORTLAND CEMENT CONCRETE,NO SPECIAL SURFACE TREATMENT
 

Additional Remarks

Instrument Procedures

No published instrument procedures available
Topographic chart at:
Satellite photo at:
Airport distance calculator
From:
Weather Reports

METAR

KGXY
4.2nm NE
KGXY 290255Z 31011KT 10SM CLR 19/M04 A2990 RMK AO1 52010
KFNL
14.3nm W
KFNL 290255Z AUTO 30020G24KT 10SM FEW120 19/M03 A2997 RMK AO1 52024
KLMO
25.8nm SW
KLMO 290255Z AUTO 36005KT 10SM CLR 17/M04 A2996 RMK AO2 T01711037
KEIK
28.6nm S
KEIK 290255Z AUTO 00000KT 10SM CLR 17/M04 A2995 RMK AO2 T01661045
KBDU
33.3nm SW
KBDU 290257Z AUTO 00000KT 10SM CLR 20/M05 A2993 RMK AO2
KDEN
35.0nm SE
KDEN 290253Z 26010KT 10SM FEW100 18/M04 A2997 RMK AO2 SLP085 T01831044 53012

TAF

KDEN
35.0nm SE
KDEN 290246Z 2903/3006 23012KT P6SM FEW100 FEW200 FM290500 20010KT P6SM FEW080 SCT150 FM290900 35012G20KT P6SM FEW080 SCT150 FM291400 02014KT P6SM FEW080 SCT150 FM292000 06008KT P6SM FEW080 SCT150 FM300100 14007KT P6SM SCT150 SCT220
KBJC
35.3nm S
KBJC 282320Z 2900/2924 27015G25KT P6SM FEW080 FM290100 27012KT P6SM FEW080 FM290500 31010KT P6SM FEW080 SCT150 FM291000 34012KT P6SM FEW080 SCT150 FM291500 05008KT P6SM FEW080 SCT150 FM291900 12007KT P6SM FEW080 SCT150
Safelog

 

Dauntless Aviation

© 2007-2015 Dauntless Aviation, all rights reserved
Information provided via PilotNav comes from a variety of official and unofficial data sources. As errors are possible, do not use PilotNav for primary flight planning purposes. Verify any information that you receive via PilotNav with current and canonical charts and other official documents. The material in this database is subject to database copyrights held by Dauntless Aviation and may not be copied without the express permission of Dauntless Aviation - licenses for use of part of all of this data are available for purchase; enquire via the Dauntless Aviation helpdesk. A number of mechanisms and markers exist in the database to protect against and identify infringement / copyright. Automated queries against this website are stictly prohibited, and all activity is logged and analyzed.